Погода в Зилани

Погода в Зилани : погода сейчас, прогноз погоды и архив. Всё, что Вы хотите узнать о погоде в Зилани!

Поиск расширенной информации на нашем сайте:

Другие новости

Новости СМИ2

Главная страница сайта

Новости сайта

03.07.2017

Напоминаем, что на нашем специализированном сайте Метеоцентр.Азия вы можете получить высокодетализированные автоматические прогнозы погоды по пунктам России, СНГ и мира в авиационном формате (включающие направление и скорость ветра, видимость, явления погоды, количество и форму облачности, нижнюю и верхнюю границу облачности).


Погода в Зилани - сегодня

Время (UTC), дата Ветер
(°,м/с) 
Видим.   Явления Облачность Т
(°С)
Тd
(°С)
f(%) Тe
(°С)
Pmin
(гПа)
dP
(гПа)
Po
(мм)
O2
(г/м3)
Тmin Tmax R s Состояние
почвы
18 08.02.18 030 (СВ) 1-2  н/о    н/о 
-5.4 -6.7 91 -5  1021.7  0.1  756  311           
21 08.02.18 030 (СВ) 1-2  н/о    н/о 
-5.9 -7.1 91 -6  1021.8  0.1  756  312           
00 09.02.18 000 (С) 2-3  н/о    н/о 
-5.9 -6.9 93 -7  1022  0.2  756  312           
03 09.02.18 330 (СЗ) 2-3  н/о    н/о 
-6.6 -7.1 96 -8  1022.1  0.1  756  313           
06 09.02.18 010 (С) 1-3  н/о    н/о 
-7.5 -8 96 -7  1022.5  0.3  756  314           
09 09.02.18 000 (С) 2-3  н/о    н/о 
-7.4 -7.9 96 -9  1022.8  0.3  757  314           
12 09.02.18 000 (С) 2-3  н/о    н/о 
-6.8 -7.4 95 -8  1022.4  -0.4  756  313           
15 09.02.18 020 (С) 2-4  н/о    н/о 
-7.3 -7.9 95 -9  1022.3  -0.1  756  314           
18 09.02.18 020 (С) 2-4  н/о    н/о 
-7.9 -8.6 95 -9  1022.5  0.1  756  315           
09 22.02.18 040 (СВ) 1-1  н/о    н/о 
-13.5 -15.8 83 -13  1032.3  0.7  763  325           
21 23.04.18 150 (ЮВ) 2-4  н/о    н/о 
+10.1 +1.8 56 +10  1009.1  -1.4  747  290           
06 25.04.18 240 (ЮЗ) 3-7  н/о    н/о 
+8 +5.1 82 +7  1003.2  0.5  743  290           
18 29.04.18 150 (ЮВ) 1-1  н/о    н/о 
+15.1 +7.7 61 +16  1011.5  -0.7  749  285           
21 06.05.18 030 (СВ) 1-2  н/о    н/о 
+14.5 +6.4 58 +16  1024.3  759  289           
15 21.05.18 090 (В) 2-6  н/о    н/о 
+21.7 +5.2 34 +22  1025.9  -1.6  760  283           
15 06.06.18 310 (СЗ) 4-8  н/о    н/о 
+13.8 -3.4 30 +13  1018.6  0.1  754  290           
15 14.06.18 150 (ЮВ) 1-3  н/о    н/о 
+23.7 +8.1 37 +24  1011.9  -0.5  750  277           
12 04.07.18 310 (СЗ) 4-6  н/о    н/о 
+20.5 +11.4 56 +24  1007  -0.2  746  277           
00 24.07.18 010 (С) 1-2  н/о    н/о 
+19.3 +18.8 97 +37  1011.9  -0.3  750  278           
15 05.09.18 040 (СВ) 2-4  н/о    н/о 
+21.7 +15.8 69 +32  1017.7  0.1  754  278           
21 06.09.18 110 (В) 1-3  н/о    н/о 
+17.2 +10.2 63 +20  1016.6  0.1  753  284           
15 07.09.18 130 (ЮВ) 1-2  н/о    н/о 
+24.8 +10.7 41 +27  1016.5  -0.3  753  276           
15 10.09.18 120 (ЮВ) 1-3  н/о    н/о 
+22.7 +12.1 51 +27  1020.6  -0.5  756  279           
18 10.09.18 110 (В) 1-2  н/о    н/о 
+15.3 +12.9 86 +22  1021  0.1  756  286           
00 14.09.18 190 (Ю) 1-2  н/о    н/о 
+7.2 +6.4 95 +8  1019  0.4  754  295           
Время (UTC), дата Ветер
(°,м/с) 
Видим.   Явления Облачность Т
(°С)
Тd
(°С)
f(%) Тe
(°С)
Pmin
(гПа)
dP
(гПа)
Po
(мм)
O2
(г/м3)
Тmin Tmax R s Состояние
почвы

Для получения пояснительной информации подведите курсор к названию столбца.

ПОГОДА в Зилани - архив

Всё, что Вы хотите узнать о погоде в Зилани - удобно и подробно!

Выберите нужную дату (начиная с 1 января 2015* года) и нажмите кнопку "Найти".
Будут отображены архивные сводки погоды по пункту Зилани, начиная с указанной даты.


Отображать данные в формате CSV (для использования в таблицах Excel)


Внимание! Наш архив погоды предназначен исключительно для личного некоммерческого использования в познавательных целях. Если Вам необходимы официальные справки о состоянии погоды (для производственных, юридических, коммерческих и т.п. целей), обращайтесь в органы Росгидромета.

*Примечание: данная дата относится к архиву по метеостанциям СССР (Россия, СНГ, Балтия).
Архив по метеостанциям Зарубежной Европы и Азии (кроме Китая) хранится 10 дней, по другим регионам земного шара (Китай, Африка, Америка, Австралия, Океания) - 1 день.

Зилани - район местоположения метеостанции


Название, широта, долгота, высота метеостанции:
Зилани 56.5°ш. 25.9°д. 109 м над ур. моря [Латвия]

Дополнительная информация

В oтличие oт бoльшинства пoгoдных сайтoв мы публикуем пoдрoбную метеoинфoрмацию в детальнoм прoфессиoнальнoм фoрмате.

Характеристики температуры и влажнoсти вoздуха измеряются на высoте 2 м в тени вдали oт зданий и деревьев.
Скoрoсть ветра измеряется на высoте 10 м (на урoвне рoста челoвека скoрoсть ветра ниже в 1.5-2 раза). Если метеoстанция нахoдится в гoрoде или в лесу, тo скoрoсть ветра занижена на 2-4 м/с пo сравнению с oткрытым местoм. Скoрoсть ветра над акватoриями крупных рек и oзёр, а также на вершинах хoлмoв на 2-5 м/с выше, чем в oбычных услoвиях.
Атмoсфернoе давление в разных тoчках местнoсти мoжет значительнo oтличаться oт давления на метеoстанции, в зависимoсти oт услoвий рельефа (при пoдъёме на 10 м давление пoнижается примернo на 1 мм рт.ст.).